owner,sensor,date,latitude,longitude,vertical_datum,sea_water_practical_salinity,qcFlag 
ENP,ioos.station.NOAA.NDBC:LMDF1:1,2019-05-01T00:00:00Z,25.1760,-80.6330,1.5,32.1,11111222 
ENP,ioos.station.NOAA.NDBC:LMDF1:1,2019-05-01T01:00:00Z,25.1760,-80.6330,1.5,32.03,11111222 
ENP,ioos.station.NOAA.NDBC:LMDF1:1,2019-05-01T02:00:00Z,25.1760,-80.6330,1.5,32.0,11111222 
ENP,ioos.station.NOAA.NDBC:LMDF1:1,2019-05-01T03:00:00Z,25.1760,-80.6330,1.5,32.3,11111222 
ENP,ioos.station.NOAA.NDBC:LMDF1:1,2019-05-01T04:00:00Z,25.1760,-80.6330,1.5,32.2,11111222 
ENP,ioos.station.NOAA.NDBC:LMDF1:1,2019-05-01T05:00:00Z,25.1760,-80.6330,1.5,32.16,11111222 
ENP,ioos.station.NOAA.NDBC:LMDF1:1,2019-05-01T09:00:00Z,25.1760,-80.6330,1.5,32.03,11111222 
ENP,ioos.station.NOAA.NDBC:LMDF1:1,2019-05-01T10:00:00Z,25.1760,-80.6330,1.5,31.98,11111222 
ENP,ioos.station.NOAA.NDBC:LMDF1:1,2019-05-01T11:00:00Z,25.1760,-80.6330,1.5,31.92,11111222 
ENP,ioos.station.NOAA.NDBC:LMDF1:1,2019-05-01T12:00:00Z,25.1760,-80.6330,1.5,31.98,11111222 
ENP,ioos.station.NOAA.NDBC:LMDF1:1,2019-05-01T13:00:00Z,25.1760,-80.6330,1.5,31.92,11111222 
ENP,ioos.station.NOAA.NDBC:LMDF1:1,2019-05-01T14:00:00Z,25.1760,-80.6330,1.5,32.1,11111222 
ENP,ioos.station.NOAA.NDBC:LMDF1:1,2019-05-01T15:00:00Z,25.1760,-80.6330,1.5,31.95,11111222 
ENP,ioos.station.NOAA.NDBC:LMDF1:1,2019-05-01T16:00:00Z,25.1760,-80.6330,1.5,32.28,11111222 
ENP,ioos.station.NOAA.NDBC:LMDF1:1,2019-05-01T17:00:00Z,25.1760,-80.6330,1.5,32.22,11111222 
ENP,ioos.station.NOAA.NDBC:LMDF1:1,2019-05-01T18:00:00Z,25.1760,-80.6330,1.5,32.47,11111222 
ENP,ioos.station.NOAA.NDBC:LMDF1:1,2019-05-01T19:00:00Z,25.1760,-80.6330,1.5,32.25,11111222 
ENP,ioos.station.NOAA.NDBC:LMDF1:1,2019-05-01T20:00:00Z,25.1760,-80.6330,1.5,32.22,11111222 
ENP,ioos.station.NOAA.NDBC:LMDF1:1,2019-05-01T21:00:00Z,25.1760,-80.6330,1.5,32.35,11111222 
ENP,ioos.station.NOAA.NDBC:LMDF1:1,2019-05-01T22:00:00Z,25.1760,-80.6330,1.5,32.27,11111222 
ENP,ioos.station.NOAA.NDBC:LMDF1:1,2019-05-01T23:00:00Z,25.1760,-80.6330,1.5,32.2,11111222 
ENP,ioos.station.NOAA.NDBC:LMDF1:1,2019-05-02T00:00:00Z,25.1760,-80.6330,1.5,32.05,11111222 
ENP,ioos.station.NOAA.NDBC:LMDF1:1,2019-05-02T01:00:00Z,25.1760,-80.6330,1.5,32.12,11111222 
ENP,ioos.station.NOAA.NDBC:LMDF1:1,2019-05-02T02:00:00Z,25.1760,-80.6330,1.5,31.98,11111222 
ENP,ioos.station.NOAA.NDBC:LMDF1:1,2019-05-02T03:00:00Z,25.1760,-80.6330,1.5,31.9,11111222 
ENP,ioos.station.NOAA.NDBC:LMDF1:1,2019-05-02T04:00:00Z,25.1760,-80.6330,1.5,31.89,11111222 
ENP,ioos.station.NOAA.NDBC:LMDF1:1,2019-05-02T05:00:00Z,25.1760,-80.6330,1.5,31.94,11111222 
ENP,ioos.station.NOAA.NDBC:LMDF1:1,2019-05-02T07:00:00Z,25.1760,-80.6330,1.5,32.1,11111222 
ENP,ioos.station.NOAA.NDBC:LMDF1:1,2019-05-02T08:00:00Z,25.1760,-80.6330,1.5,32.42,11111222 
ENP,ioos.station.NOAA.NDBC:LMDF1:1,2019-05-02T09:00:00Z,25.1760,-80.6330,1.5,32.58,11111222 
ENP,ioos.station.NOAA.NDBC:LMDF1:1,2019-05-02T10:00:00Z,25.1760,-80.6330,1.5,32.1,11111222 
ENP,ioos.station.NOAA.NDBC:LMDF1:1,2019-05-02T11:00:00Z,25.1760,-80.6330,1.5,32.13,11111222 
ENP,ioos.station.NOAA.NDBC:LMDF1:1,2019-05-02T12:00:00Z,25.1760,-80.6330,1.5,31.91,11111222 
ENP,ioos.station.NOAA.NDBC:LMDF1:1,2019-05-02T13:00:00Z,25.1760,-80.6330,1.5,32.42,11111222 
ENP,ioos.station.NOAA.NDBC:LMDF1:1,2019-05-02T14:00:00Z,25.1760,-80.6330,1.5,32.65,11111222 
ENP,ioos.station.NOAA.NDBC:LMDF1:1,2019-05-02T15:00:00Z,25.1760,-80.6330,1.5,32.91,11111222 
ENP,ioos.station.NOAA.NDBC:LMDF1:1,2019-05-02T16:00:00Z,25.1760,-80.6330,1.5,33.11,11111222 
ENP,ioos.station.NOAA.NDBC:LMDF1:1,2019-05-02T17:00:00Z,25.1760,-80.6330,1.5,33.19,11111222 
ENP,ioos.station.NOAA.NDBC:LMDF1:1,2019-05-02T18:00:00Z,25.1760,-80.6330,1.5,33.29,11111222 
ENP,ioos.station.NOAA.NDBC:LMDF1:1,2019-05-02T19:00:00Z,25.1760,-80.6330,1.5,33.3,11111222 
ENP,ioos.station.NOAA.NDBC:LMDF1:1,2019-05-02T20:00:00Z,25.1760,-80.6330,1.5,33.43,11111222 
ENP,ioos.station.NOAA.NDBC:LMDF1:1,2019-05-02T21:00:00Z,25.1760,-80.6330,1.5,33.42,11111222 
ENP,ioos.station.NOAA.NDBC:LMDF1:1,2019-05-02T22:00:00Z,25.1760,-80.6330,1.5,33.15,11111222 
ENP,ioos.station.NOAA.NDBC:LMDF1:1,2019-05-02T23:00:00Z,25.1760,-80.6330,1.5,33.48,11111222 
ENP,ioos.station.NOAA.NDBC:LMDF1:1,2019-05-03T00:00:00Z,25.1760,-80.6330,1.5,33.68,11111222 
ENP,ioos.station.NOAA.NDBC:LMDF1:1,2019-05-03T01:00:00Z,25.1760,-80.6330,1.5,33.67,11111222 
ENP,ioos.station.NOAA.NDBC:LMDF1:1,2019-05-03T02:00:00Z,25.1760,-80.6330,1.5,33.72,11111222 
ENP,ioos.station.NOAA.NDBC:LMDF1:1,2019-05-03T03:00:00Z,25.1760,-80.6330,1.5,33.7,11111222 
ENP,ioos.station.NOAA.NDBC:LMDF1:1,2019-05-03T04:00:00Z,25.1760,-80.6330,1.5,33.71,11111222 
ENP,ioos.station.NOAA.NDBC:LMDF1:1,2019-05-03T05:00:00Z,25.1760,-80.6330,1.5,33.89,11111222 
ENP,ioos.station.NOAA.NDBC:LMDF1:1,2019-05-03T10:00:00Z,25.1760,-80.6330,1.5,32.8,11111222 
ENP,ioos.station.NOAA.NDBC:LMDF1:1,2019-05-03T11:00:00Z,25.1760,-80.6330,1.5,33.83,11111222 
ENP,ioos.station.NOAA.NDBC:LMDF1:1,2019-05-03T12:00:00Z,25.1760,-80.6330,1.5,34.5,11111222 
ENP,ioos.station.NOAA.NDBC:LMDF1:1,2019-05-03T13:00:00Z,25.1760,-80.6330,1.5,33.75,11111222 
ENP,ioos.station.NOAA.NDBC:LMDF1:1,2019-05-03T14:00:00Z,25.1760,-80.6330,1.5,34.0,11111222 
ENP,ioos.station.NOAA.NDBC:LMDF1:1,2019-05-03T15:00:00Z,25.1760,-80.6330,1.5,34.6,11111222 
ENP,ioos.station.NOAA.NDBC:LMDF1:1,2019-05-03T16:00:00Z,25.1760,-80.6330,1.5,34.76,11111222 
ENP,ioos.station.NOAA.NDBC:LMDF1:1,2019-05-03T17:00:00Z,25.1760,-80.6330,1.5,34.75,11111222 
ENP,ioos.station.NOAA.NDBC:LMDF1:1,2019-05-03T18:00:00Z,25.1760,-80.6330,1.5,34.8,11111222 
ENP,ioos.station.NOAA.NDBC:LMDF1:1,2019-05-03T19:00:00Z,25.1760,-80.6330,1.5,34.94,11111222 
ENP,ioos.station.NOAA.NDBC:LMDF1:1,2019-05-03T20:00:00Z,25.1760,-80.6330,1.5,34.72,11111222 
ENP,ioos.station.NOAA.NDBC:LMDF1:1,2019-05-03T21:00:00Z,25.1760,-80.6330,1.5,34.76,11111222 
ENP,ioos.station.NOAA.NDBC:LMDF1:1,2019-05-03T22:00:00Z,25.1760,-80.6330,1.5,34.77,11111222 
ENP,ioos.station.NOAA.NDBC:LMDF1:1,2019-05-03T23:00:00Z,25.1760,-80.6330,1.5,34.05,11111222 
ENP,ioos.station.NOAA.NDBC:LMDF1:1,2019-05-04T00:00:00Z,25.1760,-80.6330,1.5,34.61,11111222 
ENP,ioos.station.NOAA.NDBC:LMDF1:1,2019-05-04T01:00:00Z,25.1760,-80.6330,1.5,34.79,11111222 
ENP,ioos.station.NOAA.NDBC:LMDF1:1,2019-05-04T02:00:00Z,25.1760,-80.6330,1.5,34.38,11111222 
ENP,ioos.station.NOAA.NDBC:LMDF1:1,2019-05-04T03:00:00Z,25.1760,-80.6330,1.5,34.3,11111222 
ENP,ioos.station.NOAA.NDBC:LMDF1:1,2019-05-04T04:00:00Z,25.1760,-80.6330,1.5,34.61,11111222 
ENP,ioos.station.NOAA.NDBC:LMDF1:1,2019-05-04T05:00:00Z,25.1760,-80.6330,1.5,34.55,11111222 
ENP,ioos.station.NOAA.NDBC:LMDF1:1,2019-05-04T06:00:00Z,25.1760,-80.6330,1.5,34.47,11111222 
ENP,ioos.station.NOAA.NDBC:LMDF1:1,2019-05-04T07:00:00Z,25.1760,-80.6330,1.5,34.58,11111222 
ENP,ioos.station.NOAA.NDBC:LMDF1:1,2019-05-04T08:00:00Z,25.1760,-80.6330,1.5,34.48,11111222 
ENP,ioos.station.NOAA.NDBC:LMDF1:1,2019-05-04T09:00:00Z,25.1760,-80.6330,1.5,34.61,11111222 
ENP,ioos.station.NOAA.NDBC:LMDF1:1,2019-05-04T10:00:00Z,25.1760,-80.6330,1.5,35.11,11111222 
ENP,ioos.station.NOAA.NDBC:LMDF1:1,2019-05-04T11:00:00Z,25.1760,-80.6330,1.5,34.92,11111222 
ENP,ioos.station.NOAA.NDBC:LMDF1:1,2019-05-04T12:00:00Z,25.1760,-80.6330,1.5,35.0,11111222 
ENP,ioos.station.NOAA.NDBC:LMDF1:1,2019-05-04T13:00:00Z,25.1760,-80.6330,1.5,33.93,11111222 
ENP,ioos.station.NOAA.NDBC:LMDF1:1,2019-05-04T14:00:00Z,25.1760,-80.6330,1.5,35.07,11111222 
ENP,ioos.station.NOAA.NDBC:LMDF1:1,2019-05-04T15:00:00Z,25.1760,-80.6330,1.5,35.34,11111222 
ENP,ioos.station.NOAA.NDBC:LMDF1:1,2019-05-04T16:00:00Z,25.1760,-80.6330,1.5,35.36,11111222 
ENP,ioos.station.NOAA.NDBC:LMDF1:1,2019-05-04T17:00:00Z,25.1760,-80.6330,1.5,35.55,11111222 
ENP,ioos.station.NOAA.NDBC:LMDF1:1,2019-05-04T19:00:00Z,25.1760,-80.6330,1.5,35.5,11111222 
ENP,ioos.station.NOAA.NDBC:LMDF1:1,2019-05-04T20:00:00Z,25.1760,-80.6330,1.5,35.5,11111222 
ENP,ioos.station.NOAA.NDBC:LMDF1:1,2019-05-04T21:00:00Z,25.1760,-80.6330,1.5,35.59,11111222 
ENP,ioos.station.NOAA.NDBC:LMDF1:1,2019-05-04T22:00:00Z,25.1760,-80.6330,1.5,35.5,11111222 
ENP,ioos.station.NOAA.NDBC:LMDF1:1,2019-05-04T23:00:00Z,25.1760,-80.6330,1.5,34.95,11111222 
ENP,ioos.station.NOAA.NDBC:LMDF1:1,2019-05-05T00:00:00Z,25.1760,-80.6330,1.5,35.09,11111222 
ENP,ioos.station.NOAA.NDBC:LMDF1:1,2019-05-05T01:00:00Z,25.1760,-80.6330,1.5,34.53,11111222 
ENP,ioos.station.NOAA.NDBC:LMDF1:1,2019-05-05T02:00:00Z,25.1760,-80.6330,1.5,34.61,11111222 
ENP,ioos.station.NOAA.NDBC:LMDF1:1,2019-05-05T03:00:00Z,25.1760,-80.6330,1.5,34.6,11111222 
ENP,ioos.station.NOAA.NDBC:LMDF1:1,2019-05-05T04:00:00Z,25.1760,-80.6330,1.5,35.37,11111222 
ENP,ioos.station.NOAA.NDBC:LMDF1:1,2019-05-05T05:00:00Z,25.1760,-80.6330,1.5,34.92,11111222 
ENP,ioos.station.NOAA.NDBC:LMDF1:1,2019-05-05T06:00:00Z,25.1760,-80.6330,1.5,34.58,11111222 
ENP,ioos.station.NOAA.NDBC:LMDF1:1,2019-05-05T07:00:00Z,25.1760,-80.6330,1.5,34.72,11111222 
ENP,ioos.station.NOAA.NDBC:LMDF1:1,2019-05-05T08:00:00Z,25.1760,-80.6330,1.5,34.75,11111222 
ENP,ioos.station.NOAA.NDBC:LMDF1:1,2019-05-05T09:00:00Z,25.1760,-80.6330,1.5,34.37,11111222 
ENP,ioos.station.NOAA.NDBC:LMDF1:1,2019-05-05T10:00:00Z,25.1760,-80.6330,1.5,34.89,11111222 
ENP,ioos.station.NOAA.NDBC:LMDF1:1,2019-05-05T11:00:00Z,25.1760,-80.6330,1.5,34.94,11111222 
ENP,ioos.station.NOAA.NDBC:LMDF1:1,2019-05-05T12:00:00Z,25.1760,-80.6330,1.5,34.98,11111222 
ENP,ioos.station.NOAA.NDBC:LMDF1:1,2019-05-05T13:00:00Z,25.1760,-80.6330,1.5,35.02,11111222 
ENP,ioos.station.NOAA.NDBC:LMDF1:1,2019-05-05T14:00:00Z,25.1760,-80.6330,1.5,34.6,11111222 
ENP,ioos.station.NOAA.NDBC:LMDF1:1,2019-05-05T15:00:00Z,25.1760,-80.6330,1.5,34.97,11111222 
ENP,ioos.station.NOAA.NDBC:LMDF1:1,2019-05-05T16:00:00Z,25.1760,-80.6330,1.5,34.83,11111222 
ENP,ioos.station.NOAA.NDBC:LMDF1:1,2019-05-05T17:00:00Z,25.1760,-80.6330,1.5,34.64,11111222 
ENP,ioos.station.NOAA.NDBC:LMDF1:1,2019-05-05T19:00:00Z,25.1760,-80.6330,1.5,33.9,11111222 
ENP,ioos.station.NOAA.NDBC:LMDF1:1,2019-05-05T20:00:00Z,25.1760,-80.6330,1.5,34.5,11111222 
ENP,ioos.station.NOAA.NDBC:LMDF1:1,2019-05-05T21:00:00Z,25.1760,-80.6330,1.5,34.63,11111222 
ENP,ioos.station.NOAA.NDBC:LMDF1:1,2019-05-05T22:00:00Z,25.1760,-80.6330,1.5,34.63,11111222 
ENP,ioos.station.NOAA.NDBC:LMDF1:1,2019-05-05T23:00:00Z,25.1760,-80.6330,1.5,34.11,11111222 
ENP,ioos.station.NOAA.NDBC:LMDF1:1,2019-05-06T00:00:00Z,25.1760,-80.6330,1.5,34.58,11111222 
ENP,ioos.station.NOAA.NDBC:LMDF1:1,2019-05-06T01:00:00Z,25.1760,-80.6330,1.5,34.44,11111222 
ENP,ioos.station.NOAA.NDBC:LMDF1:1,2019-05-06T02:00:00Z,25.1760,-80.6330,1.5,34.41,11111222 
ENP,ioos.station.NOAA.NDBC:LMDF1:1,2019-05-06T03:00:00Z,25.1760,-80.6330,1.5,34.3,11111222 
ENP,ioos.station.NOAA.NDBC:LMDF1:1,2019-05-06T04:00:00Z,25.1760,-80.6330,1.5,34.41,11111222 
ENP,ioos.station.NOAA.NDBC:LMDF1:1,2019-05-06T05:00:00Z,25.1760,-80.6330,1.5,34.45,11111222 
ENP,ioos.station.NOAA.NDBC:LMDF1:1,2019-05-06T06:00:00Z,25.1760,-80.6330,1.5,34.47,11111222 
ENP,ioos.station.NOAA.NDBC:LMDF1:1,2019-05-06T07:00:00Z,25.1760,-80.6330,1.5,34.24,11111222 
ENP,ioos.station.NOAA.NDBC:LMDF1:1,2019-05-06T08:00:00Z,25.1760,-80.6330,1.5,34.29,11111222 
ENP,ioos.station.NOAA.NDBC:LMDF1:1,2019-05-06T09:00:00Z,25.1760,-80.6330,1.5,34.5,11111222 
ENP,ioos.station.NOAA.NDBC:LMDF1:1,2019-05-06T10:00:00Z,25.1760,-80.6330,1.5,34.33,11111222 
ENP,ioos.station.NOAA.NDBC:LMDF1:1,2019-05-06T11:00:00Z,25.1760,-80.6330,1.5,34.34,11111222 
ENP,ioos.station.NOAA.NDBC:LMDF1:1,2019-05-06T12:00:00Z,25.1760,-80.6330,1.5,34.38,11111222 
ENP,ioos.station.NOAA.NDBC:LMDF1:1,2019-05-06T13:00:00Z,25.1760,-80.6330,1.5,34.02,11111222 
ENP,ioos.station.NOAA.NDBC:LMDF1:1,2019-05-06T14:00:00Z,25.1760,-80.6330,1.5,34.03,11111222 
ENP,ioos.station.NOAA.NDBC:LMDF1:1,2019-05-06T15:00:00Z,25.1760,-80.6330,1.5,34.19,11111222 
ENP,ioos.station.NOAA.NDBC:LMDF1:1,2019-05-06T16:00:00Z,25.1760,-80.6330,1.5,34.44,11111222 
ENP,ioos.station.NOAA.NDBC:LMDF1:1,2019-05-06T17:00:00Z,25.1760,-80.6330,1.5,34.38,11111222 
ENP,ioos.station.NOAA.NDBC:LMDF1:1,2019-05-06T18:00:00Z,25.1760,-80.6330,1.5,34.4,11111222 
ENP,ioos.station.NOAA.NDBC:LMDF1:1,2019-05-06T19:00:00Z,25.1760,-80.6330,1.5,34.43,11111222 
ENP,ioos.station.NOAA.NDBC:LMDF1:1,2019-05-06T20:00:00Z,25.1760,-80.6330,1.5,34.33,11111222 
ENP,ioos.station.NOAA.NDBC:LMDF1:1,2019-05-06T21:00:00Z,25.1760,-80.6330,1.5,34.34,11111222 
ENP,ioos.station.NOAA.NDBC:LMDF1:1,2019-05-06T22:00:00Z,25.1760,-80.6330,1.5,34.41,11111222 
ENP,ioos.station.NOAA.NDBC:LMDF1:1,2019-05-06T23:00:00Z,25.1760,-80.6330,1.5,33.61,11111222 
ENP,ioos.station.NOAA.NDBC:LMDF1:1,2019-05-07T00:00:00Z,25.1760,-80.6330,1.5,34.32,11111222 
ENP,ioos.station.NOAA.NDBC:LMDF1:1,2019-05-07T01:00:00Z,25.1760,-80.6330,1.5,34.1,11111222 
ENP,ioos.station.NOAA.NDBC:LMDF1:1,2019-05-07T02:00:00Z,25.1760,-80.6330,1.5,33.56,11111222 
ENP,ioos.station.NOAA.NDBC:LMDF1:1,2019-05-07T03:00:00Z,25.1760,-80.6330,1.5,33.8,11111222 
ENP,ioos.station.NOAA.NDBC:LMDF1:1,2019-05-07T04:00:00Z,25.1760,-80.6330,1.5,34.2,11111222 
ENP,ioos.station.NOAA.NDBC:LMDF1:1,2019-05-07T05:00:00Z,25.1760,-80.6330,1.5,33.63,11111222 
ENP,ioos.station.NOAA.NDBC:LMDF1:1,2019-05-07T06:00:00Z,25.1760,-80.6330,1.5,34.05,11111222 
ENP,ioos.station.NOAA.NDBC:LMDF1:1,2019-05-07T07:00:00Z,25.1760,-80.6330,1.5,34.15,11111222 
ENP,ioos.station.NOAA.NDBC:LMDF1:1,2019-05-07T08:00:00Z,25.1760,-80.6330,1.5,34.1,11111222 
ENP,ioos.station.NOAA.NDBC:LMDF1:1,2019-05-07T09:00:00Z,25.1760,-80.6330,1.5,34.05,11111222 
ENP,ioos.station.NOAA.NDBC:LMDF1:1,2019-05-07T10:00:00Z,25.1760,-80.6330,1.5,34.13,11111222 
ENP,ioos.station.NOAA.NDBC:LMDF1:1,2019-05-07T11:00:00Z,25.1760,-80.6330,1.5,33.67,11111222 
ENP,ioos.station.NOAA.NDBC:LMDF1:1,2019-05-07T12:00:00Z,25.1760,-80.6330,1.5,33.28,11111222 
ENP,ioos.station.NOAA.NDBC:LMDF1:1,2019-05-07T13:00:00Z,25.1760,-80.6330,1.5,33.9,11111222 
ENP,ioos.station.NOAA.NDBC:LMDF1:1,2019-05-07T14:00:00Z,25.1760,-80.6330,1.5,33.32,11111222 
ENP,ioos.station.NOAA.NDBC:LMDF1:1,2019-05-07T15:00:00Z,25.1760,-80.6330,1.5,33.71,11111222 
ENP,ioos.station.NOAA.NDBC:LMDF1:1,2019-05-07T16:00:00Z,25.1760,-80.6330,1.5,34.02,11111222 
ENP,ioos.station.NOAA.NDBC:LMDF1:1,2019-05-07T17:00:00Z,25.1760,-80.6330,1.5,34.01,11111222 
ENP,ioos.station.NOAA.NDBC:LMDF1:1,2019-05-07T18:00:00Z,25.1760,-80.6330,1.5,34.08,11111222 
ENP,ioos.station.NOAA.NDBC:LMDF1:1,2019-05-07T19:00:00Z,25.1760,-80.6330,1.5,34.14,11111222 
ENP,ioos.station.NOAA.NDBC:LMDF1:1,2019-05-07T20:00:00Z,25.1760,-80.6330,1.5,34.14,11111222 
ENP,ioos.station.NOAA.NDBC:LMDF1:1,2019-05-07T21:00:00Z,25.1760,-80.6330,1.5,34.05,11111222 
ENP,ioos.station.NOAA.NDBC:LMDF1:1,2019-05-07T22:00:00Z,25.1760,-80.6330,1.5,33.4,11111222 
ENP,ioos.station.NOAA.NDBC:LMDF1:1,2019-05-07T23:00:00Z,25.1760,-80.6330,1.5,33.75,11111222 
ENP,ioos.station.NOAA.NDBC:LMDF1:1,2019-05-08T00:00:00Z,25.1760,-80.6330,1.5,33.81,11111222 
ENP,ioos.station.NOAA.NDBC:LMDF1:1,2019-05-08T01:00:00Z,25.1760,-80.6330,1.5,33.95,11111222 
ENP,ioos.station.NOAA.NDBC:LMDF1:1,2019-05-08T02:00:00Z,25.1760,-80.6330,1.5,33.91,11111222 
ENP,ioos.station.NOAA.NDBC:LMDF1:1,2019-05-08T03:00:00Z,25.1760,-80.6330,1.5,33.8,11111222 
ENP,ioos.station.NOAA.NDBC:LMDF1:1,2019-05-08T04:00:00Z,25.1760,-80.6330,1.5,33.67,11111222 
ENP,ioos.station.NOAA.NDBC:LMDF1:1,2019-05-08T05:00:00Z,25.1760,-80.6330,1.5,33.52,11111222 
ENP,ioos.station.NOAA.NDBC:LMDF1:1,2019-05-08T06:00:00Z,25.1760,-80.6330,1.5,33.98,11111222 
ENP,ioos.station.NOAA.NDBC:LMDF1:1,2019-05-08T07:00:00Z,25.1760,-80.6330,1.5,33.83,11111222 
ENP,ioos.station.NOAA.NDBC:LMDF1:1,2019-05-08T08:00:00Z,25.1760,-80.6330,1.5,33.88,11111222 
ENP,ioos.station.NOAA.NDBC:LMDF1:1,2019-05-08T09:00:00Z,25.1760,-80.6330,1.5,33.84,11111222 
ENP,ioos.station.NOAA.NDBC:LMDF1:1,2019-05-08T10:00:00Z,25.1760,-80.6330,1.5,34.0,11111222 
ENP,ioos.station.NOAA.NDBC:LMDF1:1,2019-05-08T11:00:00Z,25.1760,-80.6330,1.5,33.73,11111222 
ENP,ioos.station.NOAA.NDBC:LMDF1:1,2019-05-08T12:00:00Z,25.1760,-80.6330,1.5,33.59,11111222 
ENP,ioos.station.NOAA.NDBC:LMDF1:1,2019-05-08T13:00:00Z,25.1760,-80.6330,1.5,33.82,11111222 
ENP,ioos.station.NOAA.NDBC:LMDF1:1,2019-05-08T14:00:00Z,25.1760,-80.6330,1.5,33.83,11111222 
ENP,ioos.station.NOAA.NDBC:LMDF1:1,2019-05-08T15:00:00Z,25.1760,-80.6330,1.5,33.76,11111222 
ENP,ioos.station.NOAA.NDBC:LMDF1:1,2019-05-08T16:00:00Z,25.1760,-80.6330,1.5,33.84,11111222 
ENP,ioos.station.NOAA.NDBC:LMDF1:1,2019-05-08T17:00:00Z,25.1760,-80.6330,1.5,33.86,11111222 
ENP,ioos.station.NOAA.NDBC:LMDF1:1,2019-05-08T18:00:00Z,25.1760,-80.6330,1.5,33.91,11111222 
ENP,ioos.station.NOAA.NDBC:LMDF1:1,2019-05-08T19:00:00Z,25.1760,-80.6330,1.5,34.07,11111222 
ENP,ioos.station.NOAA.NDBC:LMDF1:1,2019-05-08T20:00:00Z,25.1760,-80.6330,1.5,34.16,11111222 
ENP,ioos.station.NOAA.NDBC:LMDF1:1,2019-05-08T21:00:00Z,25.1760,-80.6330,1.5,34.34,11111222 
ENP,ioos.station.NOAA.NDBC:LMDF1:1,2019-05-08T22:00:00Z,25.1760,-80.6330,1.5,34.51,11111222 
ENP,ioos.station.NOAA.NDBC:LMDF1:1,2019-05-08T23:00:00Z,25.1760,-80.6330,1.5,34.52,11111222 
ENP,ioos.station.NOAA.NDBC:LMDF1:1,2019-05-09T00:00:00Z,25.1760,-80.6330,1.5,34.08,11111222 
ENP,ioos.station.NOAA.NDBC:LMDF1:1,2019-05-09T01:00:00Z,25.1760,-80.6330,1.5,33.9,11111222 
ENP,ioos.station.NOAA.NDBC:LMDF1:1,2019-05-09T02:00:00Z,25.1760,-80.6330,1.5,34.08,11111222 
ENP,ioos.station.NOAA.NDBC:LMDF1:1,2019-05-09T03:00:00Z,25.1760,-80.6330,1.5,34.2,11111222 
ENP,ioos.station.NOAA.NDBC:LMDF1:1,2019-05-09T04:00:00Z,25.1760,-80.6330,1.5,33.96,11111222 
ENP,ioos.station.NOAA.NDBC:LMDF1:1,2019-05-09T05:00:00Z,25.1760,-80.6330,1.5,34.1,11111222 
ENP,ioos.station.NOAA.NDBC:LMDF1:1,2019-05-09T06:00:00Z,25.1760,-80.6330,1.5,33.96,11111222 
ENP,ioos.station.NOAA.NDBC:LMDF1:1,2019-05-09T07:00:00Z,25.1760,-80.6330,1.5,33.54,11111222 
ENP,ioos.station.NOAA.NDBC:LMDF1:1,2019-05-09T08:00:00Z,25.1760,-80.6330,1.5,33.98,11111222 
ENP,ioos.station.NOAA.NDBC:LMDF1:1,2019-05-09T09:00:00Z,25.1760,-80.6330,1.5,34.59,11111222 
ENP,ioos.station.NOAA.NDBC:LMDF1:1,2019-05-09T10:00:00Z,25.1760,-80.6330,1.5,34.58,11111222 
ENP,ioos.station.NOAA.NDBC:LMDF1:1,2019-05-09T11:00:00Z,25.1760,-80.6330,1.5,34.64,11111222 
ENP,ioos.station.NOAA.NDBC:LMDF1:1,2019-05-09T12:00:00Z,25.1760,-80.6330,1.5,34.41,11111222 
ENP,ioos.station.NOAA.NDBC:LMDF1:1,2019-05-09T13:00:00Z,25.1760,-80.6330,1.5,34.41,11111222 
ENP,ioos.station.NOAA.NDBC:LMDF1:1,2019-05-09T14:00:00Z,25.1760,-80.6330,1.5,34.28,11111222 
ENP,ioos.station.NOAA.NDBC:LMDF1:1,2019-05-09T15:00:00Z,25.1760,-80.6330,1.5,34.32,11111222 
ENP,ioos.station.NOAA.NDBC:LMDF1:1,2019-05-09T16:00:00Z,25.1760,-80.6330,1.5,34.38,11111222 
ENP,ioos.station.NOAA.NDBC:LMDF1:1,2019-05-09T17:00:00Z,25.1760,-80.6330,1.5,34.6,11111222 
ENP,ioos.station.NOAA.NDBC:LMDF1:1,2019-05-09T18:00:00Z,25.1760,-80.6330,1.5,35.32,11111222 
ENP,ioos.station.NOAA.NDBC:LMDF1:1,2019-05-09T19:00:00Z,25.1760,-80.6330,1.5,35.28,11111222 
ENP,ioos.station.NOAA.NDBC:LMDF1:1,2019-05-09T20:00:00Z,25.1760,-80.6330,1.5,35.7,11111222 
ENP,ioos.station.NOAA.NDBC:LMDF1:1,2019-05-09T21:00:00Z,25.1760,-80.6330,1.5,35.45,11111222 
ENP,ioos.station.NOAA.NDBC:LMDF1:1,2019-05-09T22:00:00Z,25.1760,-80.6330,1.5,35.83,11111222 
ENP,ioos.station.NOAA.NDBC:LMDF1:1,2019-05-09T23:00:00Z,25.1760,-80.6330,1.5,35.63,11111222 
ENP,ioos.station.NOAA.NDBC:LMDF1:1,2019-05-10T00:00:00Z,25.1760,-80.6330,1.5,34.61,11111222 
ENP,ioos.station.NOAA.NDBC:LMDF1:1,2019-05-10T01:00:00Z,25.1760,-80.6330,1.5,35.71,11111222 
ENP,ioos.station.NOAA.NDBC:LMDF1:1,2019-05-10T03:00:00Z,25.1760,-80.6330,1.5,34.0,11111222 
ENP,ioos.station.NOAA.NDBC:LMDF1:1,2019-05-10T04:00:00Z,25.1760,-80.6330,1.5,35.8,11111222 
ENP,ioos.station.NOAA.NDBC:LMDF1:1,2019-05-10T05:00:00Z,25.1760,-80.6330,1.5,35.76,11111222 
ENP,ioos.station.NOAA.NDBC:LMDF1:1,2019-05-10T06:00:00Z,25.1760,-80.6330,1.5,35.87,11111222 
ENP,ioos.station.NOAA.NDBC:LMDF1:1,2019-05-10T07:00:00Z,25.1760,-80.6330,1.5,36.02,11111222 
ENP,ioos.station.NOAA.NDBC:LMDF1:1,2019-05-10T08:00:00Z,25.1760,-80.6330,1.5,36.24,11111222 
ENP,ioos.station.NOAA.NDBC:LMDF1:1,2019-05-10T09:00:00Z,25.1760,-80.6330,1.5,35.51,11111222 
ENP,ioos.station.NOAA.NDBC:LMDF1:1,2019-05-10T10:00:00Z,25.1760,-80.6330,1.5,35.49,11111222 
ENP,ioos.station.NOAA.NDBC:LMDF1:1,2019-05-10T11:00:00Z,25.1760,-80.6330,1.5,34.79,11111222 
ENP,ioos.station.NOAA.NDBC:LMDF1:1,2019-05-10T12:00:00Z,25.1760,-80.6330,1.5,35.25,11111222 
ENP,ioos.station.NOAA.NDBC:LMDF1:1,2019-05-10T13:00:00Z,25.1760,-80.6330,1.5,35.23,11111222 
ENP,ioos.station.NOAA.NDBC:LMDF1:1,2019-05-10T14:00:00Z,25.1760,-80.6330,1.5,35.33,11111222 
ENP,ioos.station.NOAA.NDBC:LMDF1:1,2019-05-10T15:00:00Z,25.1760,-80.6330,1.5,35.18,11111222 
ENP,ioos.station.NOAA.NDBC:LMDF1:1,2019-05-10T16:00:00Z,25.1760,-80.6330,1.5,35.24,11111222 
ENP,ioos.station.NOAA.NDBC:LMDF1:1,2019-05-10T17:00:00Z,25.1760,-80.6330,1.5,35.14,11111222 
ENP,ioos.station.NOAA.NDBC:LMDF1:1,2019-05-10T18:00:00Z,25.1760,-80.6330,1.5,35.41,11111222 
ENP,ioos.station.NOAA.NDBC:LMDF1:1,2019-05-10T19:00:00Z,25.1760,-80.6330,1.5,35.4,11111222 
ENP,ioos.station.NOAA.NDBC:LMDF1:1,2019-05-10T20:00:00Z,25.1760,-80.6330,1.5,35.21,11111222 
ENP,ioos.station.NOAA.NDBC:LMDF1:1,2019-05-10T21:00:00Z,25.1760,-80.6330,1.5,35.17,11111222 
ENP,ioos.station.NOAA.NDBC:LMDF1:1,2019-05-10T22:00:00Z,25.1760,-80.6330,1.5,35.68,11111222 
ENP,ioos.station.NOAA.NDBC:LMDF1:1,2019-05-10T23:00:00Z,25.1760,-80.6330,1.5,35.23,11111222 
ENP,ioos.station.NOAA.NDBC:LMDF1:1,2019-05-11T00:00:00Z,25.1760,-80.6330,1.5,35.75,11111222 
ENP,ioos.station.NOAA.NDBC:LMDF1:1,2019-05-11T01:00:00Z,25.1760,-80.6330,1.5,35.7,11111222 
ENP,ioos.station.NOAA.NDBC:LMDF1:1,2019-05-11T02:00:00Z,25.1760,-80.6330,1.5,35.69,11111222 
ENP,ioos.station.NOAA.NDBC:LMDF1:1,2019-05-11T03:00:00Z,25.1760,-80.6330,1.5,34.8,11111222 
ENP,ioos.station.NOAA.NDBC:LMDF1:1,2019-05-11T04:00:00Z,25.1760,-80.6330,1.5,35.62,11111222 
ENP,ioos.station.NOAA.NDBC:LMDF1:1,2019-05-11T05:00:00Z,25.1760,-80.6330,1.5,35.74,11111222 
ENP,ioos.station.NOAA.NDBC:LMDF1:1,2019-05-11T06:00:00Z,25.1760,-80.6330,1.5,35.45,11111222 
ENP,ioos.station.NOAA.NDBC:LMDF1:1,2019-05-11T07:00:00Z,25.1760,-80.6330,1.5,35.98,11111222 
ENP,ioos.station.NOAA.NDBC:LMDF1:1,2019-05-11T08:00:00Z,25.1760,-80.6330,1.5,36.01,11111222 
ENP,ioos.station.NOAA.NDBC:LMDF1:1,2019-05-11T09:00:00Z,25.1760,-80.6330,1.5,36.01,11111222 
ENP,ioos.station.NOAA.NDBC:LMDF1:1,2019-05-11T10:00:00Z,25.1760,-80.6330,1.5,36.04,11111222 
ENP,ioos.station.NOAA.NDBC:LMDF1:1,2019-05-11T11:00:00Z,25.1760,-80.6330,1.5,35.52,11111222 
ENP,ioos.station.NOAA.NDBC:LMDF1:1,2019-05-11T12:00:00Z,25.1760,-80.6330,1.5,35.71,11111222 
ENP,ioos.station.NOAA.NDBC:LMDF1:1,2019-05-11T13:00:00Z,25.1760,-80.6330,1.5,36.3,11111222 
ENP,ioos.station.NOAA.NDBC:LMDF1:1,2019-05-11T14:00:00Z,25.1760,-80.6330,1.5,36.2,11111222 
ENP,ioos.station.NOAA.NDBC:LMDF1:1,2019-05-11T15:00:00Z,25.1760,-80.6330,1.5,36.1,11111222 
ENP,ioos.station.NOAA.NDBC:LMDF1:1,2019-05-11T16:00:00Z,25.1760,-80.6330,1.5,36.0,11111222 
ENP,ioos.station.NOAA.NDBC:LMDF1:1,2019-05-11T17:00:00Z,25.1760,-80.6330,1.5,36.5,11111222 
ENP,ioos.station.NOAA.NDBC:LMDF1:1,2019-05-11T18:00:00Z,25.1760,-80.6330,1.5,36.3,11111222 
ENP,ioos.station.NOAA.NDBC:LMDF1:1,2019-05-11T19:00:00Z,25.1760,-80.6330,1.5,35.1,11111222 
ENP,ioos.station.NOAA.NDBC:LMDF1:1,2019-05-11T20:00:00Z,25.1760,-80.6330,1.5,34.2,11111222 
ENP,ioos.station.NOAA.NDBC:LMDF1:1,2019-05-11T21:00:00Z,25.1760,-80.6330,1.5,35.8,11111222 
ENP,ioos.station.NOAA.NDBC:LMDF1:1,2019-05-11T22:00:00Z,25.1760,-80.6330,1.5,36.4,11111222 
ENP,ioos.station.NOAA.NDBC:LMDF1:1,2019-05-11T23:00:00Z,25.1760,-80.6330,1.5,36.4,11111222 
ENP,ioos.station.NOAA.NDBC:LMDF1:1,2019-05-12T00:00:00Z,25.1760,-80.6330,1.5,36.7,11111222 
ENP,ioos.station.NOAA.NDBC:LMDF1:1,2019-05-12T01:00:00Z,25.1760,-80.6330,1.5,36.7,11111222 
ENP,ioos.station.NOAA.NDBC:LMDF1:1,2019-05-12T02:00:00Z,25.1760,-80.6330,1.5,36.4,11111222 
ENP,ioos.station.NOAA.NDBC:LMDF1:1,2019-05-12T03:00:00Z,25.1760,-80.6330,1.5,36.7,11111222 